TimeEDT,TemperatureF,Dew PointF,Humidity,Sea Level PressureIn,VisibilityMPH,Wind Direction,Wind SpeedMPH,Gust SpeedMPH,PrecipitationIn,Events,Conditions,WindDirDegrees,DateUTC
12:54 AM,42.1,33.1,70,30.22,10.0,WSW,8.1,-,N/A,,Clear,250,2011-11-03 04:54:00
1:54 AM,42.1,33.1,70,30.20,10.0,WSW,11.5,-,N/A,,Clear,250,2011-11-03 05:54:00
2:54 AM,42.1,35.1,76,30.18,10.0,WSW,10.4,-,N/A,,Clear,250,2011-11-03 06:54:00
3:54 AM,41.0,35.1,79,30.17,10.0,SW,8.1,-,N/A,,Clear,230,2011-11-03 07:54:00
4:54 AM,41.0,35.6,81,30.13,10.0,WSW,11.5,-,N/A,,Clear,240,2011-11-03 08:54:00
5:54 AM,41.0,36.0,82,30.15,10.0,WSW,11.5,-,N/A,,Clear,240,2011-11-03 09:54:00
6:54 AM,39.9,36.0,86,30.13,10.0,WSW,11.5,-,N/A,,Clear,240,2011-11-03 10:54:00
7:54 AM,39.0,36.0,89,30.12,6.0,SW,6.9,-,N/A,,Clear,220,2011-11-03 11:54:00
8:54 AM,41.0,37.0,86,30.11,7.0,SW,9.2,-,N/A,,Clear,230,2011-11-03 12:54:00
9:54 AM,46.9,37.0,68,30.09,10.0,WSW,11.5,-,N/A,,Clear,240,2011-11-03 13:54:00
10:54 AM,51.1,37.9,61,30.08,10.0,WSW,15.0,20.7,N/A,,Clear,250,2011-11-03 14:54:00
11:54 AM,53.1,37.9,57,30.06,10.0,WSW,12.7,-,N/A,,Clear,250,2011-11-03 15:54:00
12:54 PM,53.1,37.9,57,30.03,10.0,WSW,13.8,-,N/A,,Clear,240,2011-11-03 16:54:00
1:54 PM,55.0,39.0,55,30.00,10.0,SW,11.5,-,N/A,,Clear,220,2011-11-03 17:54:00
2:54 PM,55.9,37.9,51,29.97,10.0,WSW,11.5,-,N/A,,Clear,250,2011-11-03 18:54:00
3:54 PM,55.9,39.0,53,29.96,10.0,WSW,10.4,-,N/A,,Clear,250,2011-11-03 19:54:00
4:54 PM,54.0,39.0,57,29.95,10.0,SW,8.1,-,N/A,,Clear,230,2011-11-03 20:54:00
5:54 PM,51.1,39.0,63,29.94,10.0,SW,9.2,-,N/A,,Clear,230,2011-11-03 21:54:00
6:54 PM,50.0,39.9,68,29.95,10.0,WSW,9.2,-,N/A,,Clear,240,2011-11-03 22:54:00
7:54 PM,48.0,39.9,74,29.94,10.0,WSW,10.4,-,N/A,,Clear,240,2011-11-03 23:54:00
8:54 PM,46.9,39.9,77,29.94,10.0,WSW,8.1,-,N/A,,Clear,250,2011-11-04 00:54:00
9:54 PM,46.4,39.2,76,29.92,10.0,WSW,10.4,-,N/A,,Clear,240,2011-11-04 01:54:00
10:54 PM,45.0,39.9,82,29.92,10.0,WSW,9.2,-,N/A,,Clear,240,2011-11-04 02:54:00
11:54 PM,45.0,41.0,86,29.91,9.0,West,8.1,-,N/A,,Clear,270,2011-11-04 03:54:00